{"data":{"norad_id":33749,"epoch":"2026-05-25T02:54:12.646944Z","epoch_age_seconds":64182,"freshness":"FRESH","line1":"1 33749U 09008A   26145.12097971  .00000070  00000+0  00000+0 0  9992","line2":"2 33749   1.2044  82.8604 0002216 328.0901  58.3793  1.00270500 63291","mean_motion":1.002705,"eccentricity":0.0002216,"inclination_deg":1.2044,"raan_deg":82.8604,"arg_perigee_deg":328.0901,"mean_anomaly_deg":58.3793,"bstar":0,"rev_number":6329,"period_min":1436.1153080916,"perigee_km":35777.611412754,"apogee_km":35796.298981616,"semimajor_km":42165.092197185,"source":"CELESTRAK","updated_at":"2026-05-25T13:38:14.502351Z"}}